Regional Weather Roundup
Issued by NWS San Angelo, TX

Home | Current Version | Previous Version | Text Only | Print | Product List | Glossary On
Versions: 1 2 3 4 5 6 7 8 9 10 11 12 13 14 15 16 17 18 19 20 21 22 23 24 25 26 27 28 29 30 31 32 33 34 35 36 37 38 39 40 41 42 43 44 45 46 47 48 49 50
000
ASUS44 KSJT 241010
RWRSJT
WEST CENTRAL TEXAS REGIONAL WEATHER ROUNDUP
NATIONAL WEATHER SERVICE SAN ANGELO TX
500 AM CDT SUN MAY 24 2015

NOTE: "FAIR" INDICATES FEW OR NO CLOUDS BELOW 12,000 FEET WITH NO
SIGNIFICANT WEATHER AND/OR OBSTRUCTIONS TO VISIBILITY.

TXZ049-054-064>066-071>073-076>078-098-099-113-114-127-128-139-140-
154-155-168>170-241100
...LOCATIONS ACROSS WEST CENTRAL TEXAS...

CITY           SKY/WX    TMP DP  RH WIND       PRES   REMARKS
SAN ANGELO     CLOUDY    64  61  90 CALM      29.86F
ABILENE        CLOUDY    65  62  90 W6        29.86F
DYESS AFB      NOT AVBL
JUNCTION       CLOUDY    62  61  96 S6        29.87S
SWEETWATER     CLOUDY    64  64 100 SE10      29.89F
BROWNWOOD      CLOUDY    64  63  94 E13       29.77F
COLEMAN        CLOUDY    64  64  99 SW6       29.83F
SONORA         CLOUDY    63  61  94 S3        29.91S
OZONA          CLOUDY    63  61  94 W6        29.91R
BRADY          PTCLDY    63  61  94 SW10      29.83R
$$

TEXAS PANHANDLE/OKLAHOMA PANHANDLE

CITY           SKY/WX    TMP DP  RH WIND       PRES   REMARKS
AMARILLO       MOCLDY    56  54  93 S23       29.89S
BORGER         PTCLDY    59  55  87 SE10      29.88F
CANADIAN       CLOUDY    61  60  96 S13G20    29.89R
DALHART        CLOUDY    56  54  93 S9        29.91R
DUMAS          CLOUDY    55  54  97 S10       29.91R
GUYMON         NOT AVBL
HEREFORD       MOSUNNY   55  54  97 MISG      29.90F
PAMPA          CLOUDY    57  55  94 S14       29.90F
PERRYTON       CLOUDY    59  57  92 S16       29.88S
$$

SOUTHERN PANHANDLE/SOUTH PLAINS/ROLLING PLAINS

CITY           SKY/WX    TMP DP  RH WIND       PRES   REMARKS
LUBBOCK        CLOUDY    59  58  96 S9        29.89F
SNYDER         CLOUDY    59  58  97 S5        29.88S
CHILDRESS      FOG       60  60 100 E8        29.90S VSB 1
SEMINOLE       CLOUDY    57  56  95 CALM      29.90S
$$

PERMIAN BASIN

CITY           SKY/WX    TMP DP  RH WIND       PRES   REMARKS
MIDLAND        CLOUDY    63  59  87 S15       29.86F
ODESSA           N/A    N/A N/A N/A MISG      29.91R
WINK           PTCLDY    60  53  77 CALM      29.87S
$$

FAR WEST/SOUTHWEST MOUNTAINS/TRANS PECOS

CITY           SKY/WX    TMP DP  RH WIND       PRES   REMARKS
ALPINE         SUNNY     50  46  87 SW8       30.06R
DRYDEN         NOT AVBL
EL PASO        CLEAR     65  24  21 W12       29.96R
FORT STOCKTON  CLEAR     58  51  78 SW13      29.89S
GUADALUPE PASS CLEAR     55  19  24 SW16      29.99S
MARFA          CLEAR     46  45  93 NW7       30.04R
PECOS          SUNNY     55  54  94 CALM      29.90S
$$

DALLAS/FORT WORTH METROPLEX

CITY           SKY/WX    TMP DP  RH WIND       PRES   REMARKS
DFW AIRPORT    CLOUDY    66  66 100 S6        29.89R
FTW MEACHAM      N/A    N/A N/A N/A MISG      29.87F
DAL-EXECUTIVE  CLOUDY    66  65  96 VRB6      29.90R
GRAND PRAIRIE  CLOUDY    68  68 100 S10       29.91S
ADDISON        CLOUDY   N/A N/A N/A S6        29.91S
MESQUITE       CLOUDY    67  65  94 S8        29.92R
LANCASTER      CLOUDY    66  63  91 S7        29.92S
$$

NORTH CENTRAL TEXAS

CITY           SKY/WX    TMP DP  RH WIND       PRES   REMARKS
SHRMAN/DENISON RAIN      67  67 100 SW6       29.89R
GAINESVILLE    LGT RAIN  66  65  97 CALM      29.90R
BRIDGEPORT     DRIZZLE   67  67 100 S3        29.89F
DENTON         CLOUDY    68  68 100 SE6       29.88R
WAXAHACHIE     CLOUDY    65  65 100 S9        29.93R
GRANBURY         N/A     69  67  94 E5        29.87F
$$

WESTERN NORTH TEXAS

CITY           SKY/WX    TMP DP  RH WIND       PRES   REMARKS
WICHITA FALLS  CLOUDY    65  64  97 NE12      29.87F
VERNON         CLOUDY    63  59  87 NE7       29.89F
BRECKENRIDGE   LGT RAIN  67  66  97 SE6       29.84F
COMANCHE       LGT RAIN  64  64 100 S15G28    29.79F
$$

CENTRAL AND SOUTH CENTRAL TEXAS

CITY           SKY/WX    TMP DP  RH WIND       PRES   REMARKS
AUSTIN/BERGSTM RAIN      66  66 100 S7          N/A  FOG
WACO           LGT RAIN  66  65  96 CALM      29.90F
HILLSBORO      LGT RAIN  66  64  93 SE6       29.91F
TEMPLE         CLOUDY    66  63  88 N6        29.87F
KILLEEN-GRAY   TSTM      66  64  94 W6        29.89S FOG
FORT HOOD      LGT RAIN  66  64  94 W10       29.90R
GEORGETOWN     CLOUDY   N/A N/A N/A SW5       29.88R
LAGO VISTA     RAIN      64  63  96 SW6       29.89F
SAN MARCOS     CLOUDY    68  61  77 CALM      29.91F
NEW BRAUNFELS  CLOUDY    65  65 100 E9        29.86F
RANDOLPH AFB   CLOUDY    65  63  93 NE7       29.86F
SAN ANTONIO    CLOUDY    66  62  87 VRB5      29.85F
STINSON        CLOUDY    66  63  90 E8        29.83F
PLEASANTON     NOT AVBL
LA GRANGE      RAIN      72  71  97 NW7       29.85F
GIDDINGS       RAIN      69  68  96 S6        29.93S
$$

EAST TEXAS

CITY           SKY/WX    TMP DP  RH WIND       PRES   REMARKS
PARIS          CLOUDY    72  66  83 S10       29.92R
CLARKSVILLE    NOT AVBL
TYLER          LGT RAIN  71  68  90 SE12G21   29.91F
LONGVIEW       CLOUDY    74  70  87 SE7       29.95F
PALESTINE      CLOUDY    67  65  94 SE5       29.93R
NACOGDOCHES    CLOUDY    73  70  88 SE7       29.95F
$$

TEXAS HILL COUNTRY AND EDWARDS PLATEAU

CITY           SKY/WX    TMP DP  RH WIND       PRES   REMARKS
LLANO          CLOUDY    66  66 100 E10       29.81F
HORSESHOE BAY  RAIN      65  65  98 NE5       29.85F
KERRVILLE      CLOUDY    60  59  96 CALM      29.88S
FREDERICKSBRG  CLOUDY    61  60  96 N3        29.87R
ROCKSPRINGS    CLOUDY    61  61 100 SE7       29.90F
HONDO          CLOUDY    64  63  96 NE3       29.87F
UVALDE         CLOUDY    65  64  97 S5        29.89R
DEL RIO        CLOUDY    67  65  93 SE9       29.84F
$$

SOUTHEAST TEXAS

CITY           SKY/WX    TMP DP  RH WIND       PRES   REMARKS
COLLEGE STN    LGT RAIN  68  66  93 E9        29.89F
CALDWELL       TSTM      66  66 100 SW3       29.94R
CROCKETT       NOT AVBL
BRENHAM        RAIN      71  71  99 SE5       29.90S
HUNTSVILLE     CLOUDY    70  68  93 CALM      29.93F
CONROE         CLOUDY    73  71  93 E6        29.92F
HOUSTON BUSH   CLOUDY    77  72  84 SE15      29.91F
HOUSTON HOBBY  CLOUDY    78  73  84 SE12      29.91F
PERLAND        CLOUDY    80  73  79 SE15      29.93F
WHARTON        TSTM      76  73  90 S23G29    29.92R
$$

THE UPPER TEXAS COAST

CITY           SKY/WX    TMP DP  RH WIND       PRES   REMARKS
ORANGE         MOSUNNY   77  72  85 SE7       29.99R
PORT ARTHUR    MOCLDY    77  73  87 S8        29.97R
GALVESTON      CLOUDY    80  75  84 S24       29.95F
ANGLETON       CLOUDY    77  74  90 SE18G29   29.90F
BAY CITY       CLOUDY    80  77  92 S15G23    29.90S
$$

TEXAS COASTAL BEND, RIO GRANDE PLAINS DEEP SOUTH TEXAS

CITY           SKY/WX    TMP DP  RH WIND       PRES   REMARKS
VICTORIA       CLOUDY    70  68  93 SW8       29.89R
BEEVILLE       FAIR      69  69 100 SW5       29.86R
ROCKPORT       LGT RAIN  73  69  87 S9G18     29.86R
PORT ARANSAS   DRIZZLE   73  69  88 S16G25    29.90F
PORT LAVACA    LGT RAIN  70  68  94 SE23G30   29.83R
CORPUS CHRISTI CLOUDY    71  68  90 SE6       29.85R
KINGSVILLE NAS NOT AVBL
COTULLA        CLOUDY    71  68  90 CALM      29.85S
LAREDO         CLOUDY    69  67  93 SW10      29.88R
BROWNSVILLE    TSTM      69  68  96 CALM      29.98R FOG
PORT ISABEL    RAIN      70  68  93 NW7       29.94F FOG
HEBBRONVILLE     N/A     67  65  93 S8        29.82R
MCALLEN        LGT RAIN  73  68  84 S18G31    29.84F
WESLACO        RAIN      69  67  92 SE17G23   29.88F
FALFURRIAS     CLOUDY    69  66  90 S9        29.80S
EDINBURG       CLOUDY    72  67  86 SE20G25   29.78F
$$


USA.gov is the U.S. government's official web portal to all federal, state and local government web resources and services.